SITRO-AIS 8 (ANOKHIN)

Last updated on Sun Dec 14 2025 00:03:50 GMT+0000 (Coordinated Universal Time)

1 57193U 23091AD 25347.34153222 .00022115 00000+0 84862-3 0 9994 2 57193 97.5342 45.8042 0012752 40.8003 319.4188 15.26416216136044
UTC large
Height (km)
Speed (km/s)
/
Latitude / Longitude
Inclination (degrees)
Orbital Period (minutes)
Azimuth
Elevation
Range (km)
Doppler Factor

Next 0 passes for location: London (51.5072 / 0.1276)

Sorry there are no passes over London.